EHI
0 0 0 0 0 0 0 0 0 0 0 0 0 0 0 0 0 0 0 0 0 0 0 0 0 0 0 0 0 0 0 0 0 0 0 0 0 0 0 0 0 0 0 0
0 0 0 0 0 0 0 0 0 0 0 0 0 0 0 0 0 0 0 0 0 0 0 0 0 0 0 0 0 0 0 0 0 0 0 0 0 0 0 0 0 0 0 0
0 0 0 0 0 0 0 0 0 0 0 0 0 0 0 0 0 0 0 0 0 0 0 0 0 0 0 0 0 0 0 0 0 0 0 0 0 0 0 0 0 0 0 0
0 0 0 0 0 0 0 0 0 0 0 0 0 0 0 0 0 0 0 0 0 0 0 0 0 0 0 0 0 0 0 0 0 0 0 0 0 0 0 0 0 0 0 0
0 0 0 0 0 0 0 0 0 0 0 0 0 0 0 0 0 0 0 0 0 0 0 0 0 0 0 0 0 0 0 0 0 0 0 0 0 0 0 0 0 0 0 0
0 0 0 0 0 0 0 0 0 0 0 0 0 0 0 0 0 0 0 0 0 0 0 0 0 0 0 0 0 0 0 0 0 0 0 0 0 0 0 0 0 0 0 0
0 0 0 0 0 0 0 0 0 0 0 0 0 0 0 0 0 0 0 0 0 0 0 0 0 0 0 0 0 0 0 0 0 0 0 0 0 0 0 0 0 0 0 0
0 0 0 0 0 0 0 0 0 0 0 0 0 0 0 0 0 0 0 0 0 0 0 0 0 0 0 0 0 0 0 0 0 0 0 0 0 0 0 0 0 0 0 0
0 0 0 0 0 0 0 0 0 0 0 0 0 0 0 0 0 0 0 0 0 0 0 0 0 0 0 0 0 0 0 0 0 0 0 0 0 0 0 0 0 0 0 0
0 0 0 0 0 0 0 0 0 0 0 0 0 0 0 0 0 0 0 0 0 0 0 0 0 0 0 0 0 0 0 0 0 0 0 0 0 0 0 0 0 0 0 0
0 0 0 0 0 0 0 0 0 0 0 0 0 0 0 0 0 0 0 0 0 0 0 0 0 0 0 0 0 0 0 0 0 0 0 0 0 0 0 0 0 0 0 0
0 0 0 0 0 0 0 0 0 0 0 0 0 0 0 0 0 0 0 0 0 0 0 0 0 0 0 0 0 0 0 0 0 0 0 0 0 0 0 0 0 0 0 0
0 0 0 0 0 0 0 0 0 0 0 0 0 0 0 0 0 0 0 0 0 0 0 0 0 0 0 0 0 0 0 0 0 0 0 0 0 0 0 0 0 0 0 0
0 0 0 0 0 0 0 0 0 0 0 0 0 0 0 0 0 0 0 0 0 0 0 0 0 0 0 0 0 0 0 0 0 0 0 0 0 0 0 0 0 0 0 0
0 0 0 0 0 0 0 0 0 0 0 0 0 0 0 0 0 0 0 0 0 0 0 0 0 0 0 0 0 0 0 0 0 0 0 0 0 0 0 0 0 0 0 0
0 0 0 0 0 0 0 0 0 0 0 0 0 0 0 0 0 0 0 0 0 0 0 0 0 0 0 0 0 0 0 0 0 0 0 0 0 0 0 0 0 0 0 0
0 0 0 0 0 0 0 0 0 0 0 0 0 0 0 0 0 0 0 0 0 0 0 0 0 0 0 0 0 0 0 0 0 0 0 0 0 0 0 0 0 0 0 0
0 0 0 0 0 0 0 0 0 0 0 0 0 0 0 0 0 0 0 0 0 0 0 0 0 0 0 0 0 0 0 0 0 0 0 0 0 0 0 0 0 0 0 0
0 0 0 0 0 0 0 0 0 0 0 0 0 0 0 0 0 0 0 0 0 0 0 0 0 0 0 0 0 0 0 0 0 0 0 0 0 0 0 0 0 0 0 0
0 0 0 0 0 0 0 0 0 0 0 0 0 0 0 0 0 0 0 0 0 0 0 0 0 0 0 0 0 0 0 0 0 0 0 0 0 0 0 0 0 0 0 0
0 0 0 0 0 0 0 0 0 0 0 0 0 0 0 0 0 0 0 0 0 0 0 0 0 0 0 0 0 0 0 0 0 0 0 0 0 0 0 0 0 0 0 0
0 0 0 0 0 0 0 0 0 0 0 0 0 0 0 0 0 0 0 0 0 0 0 0 0 0 0 0 0 0 0 0 0 0 0 0 0 0 0 0 0 0 0 0
0 0 0 0 0 0 0 0 0 0 0 0 0 0 0 0 0 0 0 0 0 0 0 0 0 0 0 0 0 0 0 0 0 0 0 0 0 0 0 0 0 0 0 0
0 0 0 0 0 0 0 0 0 0 0 0 0 0 0 0 0 0 0 0 0 0 0 0 0 0 0 0 0 0 0 0 0 0 0 0 0 0 0 0 0 0 0 0
0 0 0 0 0 0 0 0 0 0 0 0 0 0 0 0 0 0 0 0 0 0 0 0 0 0 0 0 0 0 0 0 0 0 0 0 0 0 0 0 0 0 0 0
0 0 0 0 0 0 0 0 0 0 0 0 0 0 0 0 0 0 0 0 0 0 0 0 0 0 0 0 0 0 0 0 0 0 0 0 0 0 0 0 0 0 0 0
0 0 0 0 0 0 0 0 0 0 0 0 0 0 0 0 0 0 0 0 0 0 0 0 0 0 0 0 0 0 0 0 0 0 0 0 0 0 0 0 0 0 0 0
Wind_Speed
13 13 11 12 13 13 14 15 14 16 18 17 15 15 14 14 13 12 12 11 11 10 10 8 7 6 5 5 6 6 9 11 13 13 13 14 15 15 16 16 15 15 15 15
12 12 13 16 17 17 17 17 18 19 21 16 14 12 12 12 11 12 12 12 11 11 10 9 8 7 6 5 5 6 8 9 10 11 11 13 14 14 14 15 15 15 15 15
10 9 10 15 15 16 16 14 15 18 16 12 12 12 12 11 10 11 11 11 11 10 10 10 9 8 7 6 5 6 7 8 9 10 11 11 12 13 14 14 14 15 15 15
7 7 13 8 3 8 13 14 14 15 14 12 12 13 12 10 10 11 11 11 10 10 10 10 9 8 7 6 5 5 6 7 8 9 10 10 11 12 13 12 12 13 14 14
6 9 13 11 7 7 9 11 9 11 12 12 10 11 9 6 8 9 10 11 10 10 10 9 8 7 6 5 5 5 6 6 7 9 10 10 11 12 11 11 11 11 11 13
8 9 10 6 2 4 6 10 5 7 9 9 7 8 6 7 9 11 11 10 10 9 10 9 7 6 6 5 5 5 5 6 7 8 9 10 10 10 9 9 9 9 9 11
13 12 11 7 3 4 7 5 3 5 7 7 7 8 10 11 11 11 11 11 10 10 9 8 7 6 6 6 6 6 5 5 6 7 8 9 9 8 9 8 8 8 9 9
10 12 12 4 5 7 7 4 5 6 7 9 10 11 11 11 11 11 11 10 9 9 8 7 6 6 6 7 6 5 5 5 6 6 6 6 8 8 8 9 9 9 8 8
10 11 7 5 8 8 7 8 9 9 9 9 11 11 12 12 11 11 10 10 9 9 9 8 6 6 7 7 6 5 5 5 5 5 6 7 8 8 8 8 8 8 8 8
11 14 13 11 11 11 11 11 10 10 11 11 12 12 12 11 11 11 10 10 9 9 9 8 8 7 7 7 6 6 6 5 4 5 5 6 5 6 7 8 8 8 9 9
16 16 13 13 13 13 13 12 12 11 12 12 12 12 12 11 11 10 9 9 9 9 9 10 9 8 8 7 6 6 6 5 4 4 5 5 5 5 7 6 7 8 8 9
14 13 12 13 12 12 12 13 12 12 12 12 12 12 12 11 10 10 9 9 9 9 10 10 9 9 8 6 6 6 5 4 3 4 4 4 5 3 2 4 6 7 8 8
18 17 16 16 15 13 12 12 12 12 13 13 12 12 12 11 10 10 10 10 9 9 9 10 10 10 8 7 7 6 6 5 3 4 4 5 5 5 4 3 4 7 9 10
16 15 16 15 14 13 13 13 13 13 12 12 11 11 11 11 10 10 10 10 10 9 9 9 10 10 8 7 7 6 6 5 5 4 4 5 5 5 5 5 5 4 6 10
14 14 14 13 12 12 11 11 11 11 11 11 10 10 10 10 11 10 9 9 9 9 9 9 9 9 8 7 7 6 5 4 4 4 4 4 5 5 5 5 5 5 5 7
10 10 11 12 12 11 11 11 11 11 10 10 10 9 10 10 10 9 9 8 8 9 9 8 8 8 8 7 7 5 5 5 5 4 4 4 5 5 5 6 6 6 7 7
9 10 9 10 11 11 10 9 9 10 9 10 10 9 9 9 9 9 9 8 8 9 8 8 8 8 7 7 6 5 4 4 5 4 4 5 5 6 6 6 6 6 6 7
8 8 8 9 9 9 8 8 8 8 9 9 9 9 9 9 9 9 9 8 8 9 9 8 8 8 7 7 6 5 4 4 4 4 4 5 5 5 5 6 6 7 6 7
5 6 7 7 7 7 7 7 8 8 8 8 8 8 9 9 9 9 8 8 9 9 8 7 8 8 8 7 6 5 5 4 4 4 4 6 5 5 6 6 7 7 7 7
3 4 5 5 5 6 7 7 7 7 7 7 8 8 8 8 8 8 8 8 7 7 8 8 8 7 7 6 6 5 5 5 5 4 4 5 5 6 6 6 7 7 7 7
3 4 4 4 5 5 6 6 6 7 7 7 7 8 8 8 8 7 7 8 7 7 8 9 7 6 5 5 6 5 5 5 5 5 5 5 5 6 6 6 7 7 7 7
4 4 5 5 6 6 5 6 6 7 7 7 7 7 8 8 8 8 8 7 7 8 7 6 5 6 6 6 4 4 4 4 4 4 5 5 6 6 6 7 6 6 7 7
4 5 5 6 6 7 7 6 7 7 7 7 7 7 8 8 6 6 7 5 5 8 7 5 7 8 8 4 3 4 4 4 4 5 5 5 5 6 6 7 6 7 7 7
5 5 5 5 6 6 7 7 6 6 7 7 7 7 7 7 6 5 6 8 9 9 6 6 8 7 6 3 3 3 3 3 4 4 4 5 5 5 6 6 6 6 7 8
5 5 5 5 5 5 6 6 6 6 6 6 6 6 6 5 5 6 6 6 8 7 5 5 6 5 3 2 2 2 2 3 3 3 4 4 5 5 6 6 6 7 7 7
5 5 5 5 5 5 4 4 4 5 5 5 5 5 5 4 5 5 4 5 6 6 4 3 3 3 2 2 2 2 2 2 3 3 4 4 5 6 6 6 7 6 6 6
5 4 4 4 4 4 4 4 4 5 5 5 5 5 5 5 4 4 4 4 3 3 3 3 2 2 1 1 1 0 1 2 2 3 4 4 5 5 6 7 6 6 6 7
Wind_Direction
263 270 268 268 265 253 244 246 254 265 269 277 290 299 304 306 312 316 319 325 327 324 320 315 309 293 277 265 251 231 224 218 214 211 206 204 204 203 201 200 199 198 197 197
263 263 265 265 262 257 253 253 256 264 270 280 288 296 297 301 308 310 314 319 323 321 317 314 311 304 289 275 260 242 230 222 214 208 205 203 202 200 199 198 197 196 198 197
263 273 274 259 253 249 248 248 251 258 269 285 288 290 293 297 299 304 308 314 316 316 315 312 310 305 295 282 267 250 238 228 213 205 203 201 198 196 197 197 195 197 198 198
268 263 248 256 258 252 252 255 253 260 272 280 285 288 287 286 292 298 307 311 313 312 312 309 305 301 296 287 268 251 241 231 215 204 203 199 195 196 196 195 195 197 198 198
246 255 267 268 250 237 247 260 260 265 277 283 289 286 272 287 296 295 300 303 305 307 307 304 301 300 298 289 274 258 245 235 221 209 202 197 196 196 193 192 193 195 195 195
235 249 257 268 229 232 244 259 260 271 282 291 291 279 290 314 304 302 301 300 302 306 306 301 299 296 292 290 279 267 256 244 229 213 204 200 198 195 190 189 190 187 191 195
234 246 261 269 232 200 233 265 287 273 282 286 275 276 297 303 301 303 301 300 304 306 302 301 301 295 289 286 282 285 275 256 233 216 207 201 195 191 185 181 180 184 187 190
224 236 249 217 187 220 253 288 277 276 280 281 282 288 295 298 300 303 303 301 305 306 304 305 303 295 289 288 293 288 271 250 232 217 204 194 190 186 181 178 179 181 181 183
219 237 266 228 230 247 267 269 274 279 280 282 283 287 293 295 297 300 300 302 304 303 302 302 302 297 291 297 300 290 271 249 230 211 198 192 186 182 180 180 181 182 180 180
248 252 258 260 257 258 262 267 275 278 279 280 281 285 289 292 294 297 300 301 303 303 300 301 304 301 294 296 294 284 271 256 225 207 196 189 185 183 185 186 185 185 182 179
248 258 266 258 255 261 266 267 271 274 274 275 277 280 283 287 290 292 293 296 298 296 295 297 302 301 299 297 291 282 271 254 223 203 193 189 190 192 191 197 194 189 184 178
248 254 257 266 266 265 263 266 270 272 273 272 271 275 280 282 286 288 287 290 291 291 292 294 297 297 296 292 282 278 272 255 225 205 193 187 179 174 177 187 180 186 180 176
255 266 267 272 274 271 268 270 272 271 272 274 274 274 277 279 281 283 285 286 284 286 288 291 294 295 297 293 283 273 268 256 231 213 200 188 182 177 169 137 142 163 167 168
253 261 264 264 268 272 272 274 276 274 272 272 274 275 275 277 279 278 280 283 284 286 286 286 288 291 298 293 282 274 269 251 232 217 205 193 186 181 176 174 171 160 159 162
253 253 258 268 272 274 273 273 271 270 273 273 271 269 271 275 278 280 282 283 282 282 282 284 284 287 297 292 281 273 264 246 228 218 206 194 181 175 172 175 171 159 146 151
260 261 262 265 269 273 272 269 269 272 274 275 273 271 272 274 277 280 281 280 278 279 283 283 282 288 296 291 283 276 264 245 232 218 204 191 180 176 174 174 171 168 167 162
261 263 265 268 273 275 274 272 271 273 275 276 278 280 279 277 277 277 277 277 275 276 279 280 282 289 289 283 278 276 271 252 226 214 203 195 185 182 178 177 177 174 171 169
258 264 268 269 273 278 280 279 277 278 280 283 285 282 278 275 276 280 283 285 283 280 277 276 279 284 281 276 273 268 262 254 237 218 204 196 189 183 179 175 174 171 162 161
271 271 273 272 274 275 279 282 283 284 286 287 284 280 279 278 279 283 285 282 279 280 283 283 282 279 276 272 268 259 250 243 234 219 204 191 187 182 178 174 174 171 163 162
288 287 285 285 283 280 280 284 286 285 285 288 284 281 280 282 285 285 283 275 269 274 286 290 285 276 270 265 261 252 245 236 224 212 200 192 187 182 178 175 173 170 168 167
302 300 298 296 294 289 286 289 288 287 290 289 283 282 284 286 286 283 280 279 281 284 285 284 278 273 270 264 256 248 240 231 221 209 199 190 185 181 178 173 170 168 165 162
294 294 295 294 291 291 294 293 289 288 290 289 286 284 285 286 286 281 271 270 285 293 290 280 276 276 276 269 253 243 235 228 221 208 198 188 183 179 174 170 168 165 162 160
286 288 290 291 290 291 292 288 286 287 287 289 288 287 285 284 284 282 284 283 287 292 290 281 282 281 276 264 250 239 229 221 214 206 196 186 180 175 169 167 166 163 160 160
286 289 291 294 291 286 287 291 291 288 287 286 283 285 287 288 285 278 280 290 295 296 289 286 286 281 275 263 249 238 227 217 208 200 189 178 170 166 164 162 160 157 157 157
291 291 289 289 287 284 288 294 295 291 291 289 290 290 286 281 283 291 293 293 298 300 295 294 293 288 278 262 244 229 221 214 198 186 175 167 162 159 157 156 154 152 153 155
294 291 287 283 282 285 287 288 289 293 297 298 301 304 303 299 295 293 293 297 300 304 305 301 301 298 286 268 244 219 206 194 186 173 160 154 152 151 150 148 147 150 150 150
294 291 289 290 291 291 289 287 288 294 298 300 303 307 308 308 305 305 304 304 307 311 317 319 319 320 314 305 284 190 164 157 152 145 143 142 143 144 144 144 145 145 145 147